Погода Алуксне

Погода Алуксне : погода сейчас, прогноз погоды и архив. Всё, что Вы хотите узнать о погоде Алуксне!

Поиск расширенной информации на нашем сайте:

Другие новости

Новости СМИ2

Главная страница сайта

Новости сайта

02.10.2013

Напоминаем, что на нашем новом сайте вы можете получить высокодетализированные прогнозы погоды по пунктам России, СНГ и мира (включающие важные для авиации метеовеличины, такие как направление и скорость ветра, видимость, явления погоды, количество и форма облачности, нижняя и верхняя граница облачности), а также ознакомиться с разнообразными материалами по авиационной метеорологии и подборкой полезных ссылок на эту тему.

Сайт Метеоцентр.Азия посвящён разработке технологий оптимизации авиаметеорологического обслуживания, включая проектирование и перспективное создание нескольких автоматизированных авиаметеорологических систем:
- система выпуска высокодетальных прогностических карт явлений погоды для нижнего воздушного пространства по России и ближнему зарубежью;
- система верификации прогнозов TAF (выпускаемых синоптиками официальных АМСГ РФ и ближнего зарубежья) и AUTOTAF (выпускаемых сайтом Метеоцентр.Азия) - выявление ошибок, онлайн-сопоставление с фактической погодой METAR, автоматическое внесение коррективов в прогнозы при резком отклонении фактической погоды от прогноза, подсчёт оправдываемости прогнозов по элементам и в целом;
- система обработки, анализа и отображения авиаметеорологической информации для применения провайдерами метеорологической информации.

Рекомендуем: Прикольный подарок - Авто номера - автомобильные номера имена

Погода Алуксне - сегодня

Время (UTC), дата Ветер
(°,м/с) 
Видим.   Явления Облачность Т
(°С)
Тd
(°С)
f(%) Тe
(°С)
Pmin
(гПа)
dP
(гПа)
Po
(мм)
O2
(г/м3)
Тmin Tmax R s Состояние
почвы
03 23.06.17 300 (СЗ) 10 км    1/0 средняя 
[Ac lent]
+8.5 +5.9 84 +8  1006.6  737  286           
06 23.06.17 320 (СЗ) 10 км    ясно 
+12.5 +5.8 64 +12  1006.1  -0.2  737  282  +6.7         
09 23.06.17 310 (СЗ) 10 км    3/3 1000 м 
[Cu hum]
+15.1 +5 51 +15  1006  0.1  737  280           
12 23.06.17 300 (СЗ) 10 км    3/3 1000 м 
[Cu med, cong]
+17.1 +7.1 52 +18  1005.5  -0.3  737  278           
15 23.06.17 320 (СЗ) 10 км    3/3 1000 м 
[Cu med, cong]
+17 +4.6 44 +17  1005.8  0.3  737  278           
18 23.06.17 350 (С) 10 км    ясно 
+14.5 +5.5 55 +16  1006.6  0.6  738  281    +17.9       
21 23.06.17 050 (СВ) 10 км    ясно 
+9.4 +6.2 80 +10  1008.2  1.1  739  286           
00 24.06.17 тихо ()   10 км    3/0 верхняя 
[Ci fib]
+6 +5.2 95 +6  1008.5  738  290           
03 24.06.17 тихо ()   10 км    8/4 600 м средняя 
[Sc|As trans]
+8.4 +6.6 88 +8  1007.7  -0.5  738  287           
06 24.06.17 070 (В) 10 км    8/8 1000 м 
[Sc]
+11.8 +7 72 +12  1006.8  -0.6  738  283  +5.5         
09 24.06.17 120 (ЮВ) 10 км    8/3 1000 м средняя 
[Cu med, cong|Ac lent]
+15.7 +7.4 58 +16  1005.2  -1.3  737  279           
12 24.06.17 170 (Ю) 10 км    8/5 600 м средняя 
[Cu med, cong|As trans]
+17.4 +9 58 +19  1003.9  -1.1  736  277           
15 24.06.17 тихо ()   10 км    10/10 600 м 
[Sc]
+16.2 +11.3 73 +20  1003.2  -0.8  735  277           
18 24.06.17 тихо ()   10 км  {ливн. осадки}  10/10 600 м 
[Sc]
+13.4 +11 85 +16  1002.9  -0.5  735  280    +18.5  0.3     
21 24.06.17 210 (ЮЗ) 10 км  в посл. час ливневой дождь  10/10 300 м 
[St]
+11.8 +11.4 97 +16  1002.3  -0.7  735  281           
00 25.06.17 210 (ЮЗ) 10 км  слаб. ливневой дождь  10/10 300 м кучево-дожд. 
[Cb cap]
+13.1 +12.7 97 +18  1000.8  -1.3  733  279           
03 25.06.17 270 (З) 10 км  в посл. час ливневой дождь  10/10 300 м 
[St]
+13.8 +13.3 97 +20  1000.5  -0.3  733  278           
06 25.06.17 260 (З) 10 км  {ливн. осадки}  4/4 1000 м 
[Cu med, cong]
+15.1 +12.2 83 +20  1001.1  0.7  734  277  +11.6       
09 25.06.17 260 (З) 10 км    6/6 300 м кучево-дожд. 
[Cb calv]
+16.9 +10.7 67 +20  1001.5  0.5  734  276           
12 25.06.17 260 (З) 5-10{10}  10 км    8/6 1000 м средняя 
[Cu hum|Ac trans]
+17.9 +10.4 61 +20  1002  0.6  734  276           
15 25.06.17 270 (З) 3{12}  10 км    8/3 1000 м средняя 
[Cu hum|Ac trans]
+17.5 +8 54 +18  1002.4  0.3  735  276           
18 25.06.17 260 (З) 2{12}  10 км  слаб. ливневой дождь  10/8 300 м кучево-дожд., средняя 
[Cb cap|Ac lent]
+13.8 +10.1 78 +16  1002.7  735  279    +19.4  0.0     
21 25.06.17 210 (ЮЗ) 10 км  {ливн. осадки}  10/10 600 м 
[Sc diur, vesp]
+12.9 +9.6 80 +14  1001.6  -1.1  734  280           
00 26.06.17 тихо ()   10 км  {ливн. осадки}  9/9 1000 м 
[Sc diur, vesp]
+10.9 +10.5 97 +13  1000.5  -1.2  733  282           
03 26.06.17 270 (З) 10 км    10/10 300 м 
[St]
+11.2 +10.4 95 +13  1000.8  0.3  733  281           
Время (UTC), дата Ветер
(°,м/с) 
Видим.   Явления Облачность Т
(°С)
Тd
(°С)
f(%) Тe
(°С)
Pmin
(гПа)
dP
(гПа)
Po
(мм)
O2
(г/м3)
Тmin Tmax R s Состояние
почвы

Для получения пояснительной информации подведите курсор к названию столбца.

ПОГОДА Алуксне - архив

Всё, что Вы хотите узнать о погоде Алуксне - удобно и подробно!

Выберите нужную дату (начиная с 1 января 2015* года) и нажмите кнопку "Найти".
Будут отображены архивные сводки погоды по пункту Алуксне, начиная с указанной даты.


Отображать данные в формате CSV (для использования в таблицах Excel)


Внимание! Наш архив погоды предназначен исключительно для личного некоммерческого использования в познавательных целях. Если Вам необходимы официальные справки о состоянии погоды (для производственных, юридических, коммерческих и т.п. целей), обращайтесь в органы Росгидромета.

*Примечание: данная дата относится к архиву по метеостанциям СССР (Россия, СНГ, Балтия).
Архив по метеостанциям Зарубежной Европы и Азии (кроме Китая) хранится 10 дней, по другим регионам земного шара (Китай, Африка, Америка, Австралия, Океания) - 1 день.

Алуксне - район местоположения метеостанции


Название, широта, долгота, высота метеостанции:
Алуксне 57.4°ш. 27°д. 193 м над ур. моря [Латвия]

Дополнительная информация

В oтличие oт бoльшинства пoгoдных сайтoв мы публикуем пoдрoбную метеoинфoрмацию в детальнoм прoфессиoнальнoм фoрмате.

Характеристики температуры и влажнoсти вoздуха измеряются на высoте 2 м в тени вдали oт зданий и деревьев.
Скoрoсть ветра измеряется на высoте 10 м (на урoвне рoста челoвека скoрoсть ветра ниже в 1.5-2 раза). Если метеoстанция нахoдится в гoрoде или в лесу, тo скoрoсть ветра занижена на 2-4 м/с пo сравнению с oткрытым местoм. Скoрoсть ветра над акватoриями крупных рек и oзёр, а также на вершинах хoлмoв на 2-5 м/с выше, чем в oбычных услoвиях.
Атмoсфернoе давление в разных тoчках местнoсти мoжет значительнo oтличаться oт давления на метеoстанции, в зависимoсти oт услoвий рельефа (при пoдъёме на 10 м давление пoнижается примернo на 1 мм рт.ст.).